When you browse on this site, cookies collect data to enhance your experience and personalize the content and advertising you see.
Visit our Privacy Policy to learn more. By continuing to use the site, you agree to this use of cookies and data.
  • Em Portugal
  • Lista de países
  • Para 7 dias
  • Temperatura da água
  • Mapa do tempo
  • Widgets de tempo
  • user-avatar
    Iniciar Sessão

    Previsão horária em Chasha

    Hoje, 19 Setembro, Quinta-feira

    Tempo Temperatura Precipitação Vento Pressão Humidade
    00:00 +6°C° 0 mm 5 m/s 744 mmHg 88%
    01:00 +6°C° 0 mm 5 m/s 744 mmHg 89%
    02:00 +7°C° 0 mm 5 m/s 744 mmHg 89%
    03:00 +6°C° 0 mm 5 m/s 745 mmHg 89%
    04:00 +6°C° 0 mm 4 m/s 745 mmHg 88%
    05:00 +6°C° 0 mm 4 m/s 745 mmHg 88%
    06:00 +6°C° 0 mm 4 m/s 746 mmHg 88%
    07:00 +6°C° 0 mm 4 m/s 746 mmHg 87%
    08:00 +6°C° 0 mm 5 m/s 746 mmHg 87%
    09:00 +7°C° 0 mm 4 m/s 746 mmHg 85%
    10:00 +7°C° 0 mm 4 m/s 747 mmHg 82%
    11:00 +8°C° 0 mm 4 m/s 747 mmHg 80%
    12:00 +10°C° 0 mm 4 m/s 747 mmHg 76%
    13:00 +11°C° 0 mm 4 m/s 747 mmHg 71%
    14:00 +11°C° 0 mm 4 m/s 747 mmHg 67%
    15:00 +11°C° 0 mm 3 m/s 747 mmHg 67%
    16:00 +13°C° 0 mm 2 m/s 747 mmHg 66%
    17:00 +13°C° 0 mm 2 m/s 747 mmHg 66%
    18:00 +10°C° 0.1 mm 2 m/s 747 mmHg 72%
    19:00 +9°C° 0.1 mm 2 m/s 747 mmHg 77%
    20:00 +8°C° 0.1 mm 2 m/s 747 mmHg 83%
    21:00 +7°C° 0 mm 2 m/s 747 mmHg 86%
    22:00 +7°C° 0 mm 3 m/s 747 mmHg 88%
    23:00 +5°C° 0 mm 3 m/s 747 mmHg 90%

    Amanhã, 20 Setembro, Sexta-feira

    Tempo Temperatura Precipitação Vento Pressão Humidade
    00:00 +5°C° 0 mm 3 m/s 747 mmHg 91%
    01:00 +5°C° 0 mm 3 m/s 747 mmHg 93%
    02:00 +5°C° 0 mm 3 m/s 747 mmHg 94%
    03:00 +5°C° 0 mm 4 m/s 747 mmHg 93%
    04:00 +5°C° 0 mm 5 m/s 747 mmHg 91%
    05:00 +5°C° 0 mm 5 m/s 747 mmHg 90%
    06:00 +5°C° 0 mm 5 m/s 748 mmHg 87%
    07:00 +5°C° 0 mm 5 m/s 748 mmHg 83%
    08:00 +4°C° 0 mm 6 m/s 748 mmHg 80%
    09:00 +5°C° 0 mm 6 m/s 748 mmHg 75%
    10:00 +7°C° 0 mm 6 m/s 749 mmHg 71%
    11:00 +8°C° 0 mm 6 m/s 749 mmHg 66%
    12:00 +9°C° 0.1 mm 6 m/s 749 mmHg 61%
    13:00 +9°C° 0.1 mm 6 m/s 749 mmHg 56%
    14:00 +10°C° 0.1 mm 6 m/s 749 mmHg 52%
    15:00 +10°C° 0.1 mm 6 m/s 749 mmHg 54%
    16:00 +9°C° 0.1 mm 5 m/s 749 mmHg 57%
    17:00 +10°C° 0.1 mm 4 m/s 749 mmHg 60%
    18:00 +7°C° 0 mm 4 m/s 750 mmHg 64%
    19:00 +7°C° 0 mm 3 m/s 750 mmHg 69%
    20:00 +5°C° 0 mm 2 m/s 750 mmHg 73%
    21:00 +5°C° 0 mm 2 m/s 750 mmHg 76%
    22:00 +4°C° 0 mm 2 m/s 751 mmHg 78%
    23:00 +4°C° 0 mm 2 m/s 751 mmHg 81%

    Depois de amanhã, 21 Setembro, Sábado

    Tempo Temperatura Precipitação Vento Pressão Humidade
    00:00 +4°C° 0 mm 2 m/s 751 mmHg 81%
    01:00 +4°C° 0 mm 2 m/s 751 mmHg 81%
    02:00 +4°C° 0 mm 2 m/s 751 mmHg 82%
    03:00 +4°C° 0 mm 2 m/s 750 mmHg 80%
    04:00 +4°C° 0 mm 2 m/s 750 mmHg 78%
    05:00 +3°C° 0 mm 3 m/s 750 mmHg 77%
    06:00 +4°C° 0 mm 3 m/s 749 mmHg 76%
    07:00 +5°C° 0 mm 4 m/s 749 mmHg 74%
    08:00 +6°C° 0 mm 5 m/s 749 mmHg 73%
    09:00 +6°C° 0.6 mm 5 m/s 748 mmHg 79%
    10:00 +7°C° 0.6 mm 5 m/s 748 mmHg 86%
    11:00 +7°C° 0.6 mm 6 m/s 748 mmHg 92%
    12:00 +8°C° 0.2 mm 6 m/s 748 mmHg 92%
    13:00 +8°C° 0.2 mm 6 m/s 747 mmHg 91%
    14:00 +9°C° 0.2 mm 6 m/s 747 mmHg 91%
    15:00 +10°C° 0 mm 6 m/s 747 mmHg 90%
    16:00 +10°C° 0 mm 6 m/s 747 mmHg 89%
    17:00 +11°C° 0 mm 6 m/s 747 mmHg 88%
    18:00 +12°C° 0 mm 5 m/s 747 mmHg 89%
    19:00 +10°C° 0 mm 5 m/s 747 mmHg 90%
    20:00 +10°C° 0 mm 5 m/s 747 mmHg 91%
    21:00 +10°C° 0 mm 5 m/s 747 mmHg 92%
    22:00 +9°C° 0 mm 5 m/s 747 mmHg 92%
    23:00 +9°C° 0 mm 5 m/s 747 mmHg 93%

    22 Setembro, Domingo

    Tempo Temperatura Precipitação Vento Pressão Humidade
    00:00 +9°C° 0 mm 5 m/s 747 mmHg 94%
    01:00 +8°C° 0 mm 5 m/s 747 mmHg 94%
    02:00 +8°C° 0 mm 5 m/s 747 mmHg 95%
    03:00 +8°C° 0 mm 5 m/s 747 mmHg 95%
    04:00 +8°C° 0 mm 5 m/s 747 mmHg 94%
    05:00 +9°C° 0 mm 5 m/s 747 mmHg 94%
    06:00 +9°C° 0 mm 5 m/s 747 mmHg 92%
    07:00 +9°C° 0 mm 5 m/s 747 mmHg 91%
    08:00 +9°C° 0 mm 5 m/s 747 mmHg 89%
    09:00 +12°C° 0 mm 5 m/s 747 mmHg 84%
    10:00 +13°C° 0 mm 5 m/s 747 mmHg 79%
    11:00 +15°C° 0 mm 5 m/s 747 mmHg 73%
    12:00 +16°C° 0 mm 5 m/s 747 mmHg 70%
    13:00 +17°C° 0 mm 5 m/s 747 mmHg 66%
    14:00 +19°C° 0 mm 5 m/s 747 mmHg 62%
    15:00 +18°C° 0 mm 4 m/s 747 mmHg 66%
    16:00 +17°C° 0 mm 4 m/s 747 mmHg 70%
    17:00 +16°C° 0 mm 3 m/s 747 mmHg 74%
    18:00 +13°C° 0 mm 3 m/s 747 mmHg 79%
    19:00 +12°C° 0 mm 3 m/s 748 mmHg 84%
    20:00 +10°C° 0 mm 2 m/s 748 mmHg 88%
    21:00 +9°C° 0 mm 2 m/s 748 mmHg 85%
    22:00 +8°C° 0 mm 2 m/s 748 mmHg 81%
    23:00 +7°C° 0 mm 2 m/s 748 mmHg 78%

    23 Setembro, Segunda-feira

    Tempo Temperatura Precipitação Vento Pressão Humidade
    00:00 +7°C° 0 mm 3 m/s 748 mmHg 76%
    01:00 +7°C° 0 mm 3 m/s 748 mmHg 75%
    02:00 +5°C° 0 mm 3 m/s 748 mmHg 73%
    03:00 +5°C° 0 mm 3 m/s 748 mmHg 75%
    04:00 +5°C° 0 mm 3 m/s 748 mmHg 78%
    05:00 +5°C° 0 mm 3 m/s 747 mmHg 80%
    06:00 +6°C° 0 mm 4 m/s 747 mmHg 78%
    07:00 +6°C° 0 mm 4 m/s 747 mmHg 77%
    08:00 +7°C° 0 mm 4 m/s 746 mmHg 76%
    09:00 +10°C° 0 mm 4 m/s 746 mmHg 74%
    10:00 +12°C° 0 mm 4 m/s 746 mmHg 72%
    11:00 +14°C° 0 mm 5 m/s 745 mmHg 70%
    12:00 +15°C° 0 mm 5 m/s 744 mmHg 67%
    13:00 +16°C° 0 mm 5 m/s 744 mmHg 65%
    14:00 +17°C° 0 mm 5 m/s 743 mmHg 63%
    15:00 +17°C° 0 mm 4 m/s 742 mmHg 67%
    16:00 +15°C° 0 mm 4 m/s 742 mmHg 71%
    17:00 +14°C° 0 mm 3 m/s 741 mmHg 75%
    18:00 +13°C° 0.1 mm 3 m/s 741 mmHg 79%
    19:00 +13°C° 0.1 mm 3 m/s 740 mmHg 82%
    20:00 +12°C° 0.1 mm 3 m/s 740 mmHg 86%
    21:00 +12°C° 0 mm 2 m/s 740 mmHg 87%
    22:00 +12°C° 0 mm 2 m/s 739 mmHg 89%
    23:00 +12°C° 0 mm 2 m/s 739 mmHg 91%

    24 Setembro, Terça-feira

    Tempo Temperatura Precipitação Vento Pressão Humidade
    00:00 +11°C° 0 mm 1 m/s 739 mmHg 92%
    01:00 +11°C° 0 mm 1 m/s 738 mmHg 92%
    02:00 +11°C° 0 mm 1 m/s 738 mmHg 93%
    03:00 +11°C° 0 mm 1 m/s 738 mmHg 94%
    04:00 +10°C° 0 mm 0 m/s 738 mmHg 94%
    05:00 +10°C° 0 mm 0 m/s 737 mmHg 95%
    06:00 +10°C° 0 mm 0 m/s 737 mmHg 93%
    07:00 +11°C° 0 mm 0 m/s 737 mmHg 92%
    08:00 +11°C° 0 mm 0 m/s 737 mmHg 90%
    09:00 +14°C° 0 mm 1 m/s 738 mmHg 85%
    10:00 +15°C° 0 mm 1 m/s 738 mmHg 81%
    11:00 +16°C° 0 mm 1 m/s 738 mmHg 76%
    12:00 +16°C° 0 mm 1 m/s 738 mmHg 75%
    13:00 +16°C° 0 mm 2 m/s 738 mmHg 73%
    14:00 +16°C° 0 mm 2 m/s 738 mmHg 72%
    15:00 +16°C° 0 mm 2 m/s 738 mmHg 73%
    16:00 +16°C° 0 mm 2 m/s 739 mmHg 74%
    17:00 +16°C° 0 mm 2 m/s 739 mmHg 75%
    18:00 +15°C° 0 mm 2 m/s 739 mmHg 76%
    19:00 +15°C° 0 mm 1 m/s 740 mmHg 78%
    20:00 +14°C° 0 mm 1 m/s 740 mmHg 79%
    21:00 +13°C° 0 mm 1 m/s 740 mmHg 80%
    22:00 +13°C° 0 mm 1 m/s 740 mmHg 82%
    23:00 +12°C° 0 mm 1 m/s 740 mmHg 84%
    Mostrar mais